OPS 1509 (TRANSIT 10)

Satellite information

Favourite Embed

Satellite Type and Status

PAYLOADIN ORBIT

Key statistics

Satellite OPS 1509 (TRANSIT 10) at a glance.

Uptime

21906

Days in orbit

Revolutions

≈ 13.8

Per day

Orbit

LEO

Low Earth Orbit

Inclination

89.1

Latest

Satellite identification and parameters

Extended collection of information and parameters for OPS 1509 (TRANSIT 10).

Object identification

Identified? True

Debris? False

Object name: OPS 1509 (TRANSIT 10)

International designator: 1965-109A

Object number (NORAD): 1864

Object ID (CCSDS): 1864

Country: UNITED STATES OF AMERICA (US)

Current information (Y/N): Y

RCS size: LARGE

Orbital parameters

Period: 104.424 minutes

Inclination: 89.0659 deg

SMA: 7345.589 km

Apoapsis: 1049.519 km

Periapsis: 885.388 km

RAAN: 253.7912 deg

Eccentricy: 0.01117204

Argument of periapsis: 61.7535 deg

Mean anomaly: 299.4856 deg

Mean motion: 13.7899555 rev/day

Mean motion (dot): 0.00000281 rev/day2

B* drag term: 0.00025039307 1/REarth

Two-line elements (TLE)

Creation date: Dec. 12, 2025, 10:14 a.m.

Reference frame: TEME

Reference center: EARTH

Epoch: Dec. 12, 2025, 7:09 a.m. UTC

TLE line 0: 0 OPS 1509 (TRANSIT 10)

TLE line 1: 1 01864U 65109A 25346.29836058 .00000281 00000-0 25039-3 0 9994

TLE line 2: 2 01864 89.0659 253.7912 0111720 61.7535 299.4856 13.78995550 10349

Live tracking on map

Real-time ground track for satellite OPS 1509 (TRANSIT 10).

In-orbit conjunctions

There are no conjunctions computed for OPS 1509 (TRANSIT 10), at the moment. Check back to stay up to date, as we update our databases every day.

Go to all conjunctions

Associated space launch

The Transit-O series of satellites that closely followed the design of Transit 5C-1 were also called “Oscars” (Oscar is the phonetic alphabet for “O”, i. e., operational). They were also called NNS (Navy Navigation Satellite) or shortened NavSat.

OPS 1509 (TRANSIT 10) was lifted into orbit during the mission ‘Scout A | Transit-O 6’, on board a Scout A space rocket.

The launch took place on Dec. 22, 1965, 4:33 a.m. from Space Launch Complex 5.

For more information about the launch, click the button.

Launch to space Scout A | Transit-O 6
Scout A | Transit-O 6

Agency: N/A

Status: Launch Successful

Launch date: Dec. 22, 1965, 4:33 a.m. UTC

Rocket: Scout A

Launch pad: Space Launch Complex 5

Location: Vandenberg SFB, CA, USA

...

Latest news about this satellite

There are no fresh news available about this satellite. Check back as we update our databases every day.


Newsletter sign-up

Weekly statistics, charts and insights to help you stay on top of the space industry.